Wind_Speed
35 35 35 33 31 29 29 29 30 32 31 27 26 26 24 22 22 22 20 20 17 15 13 13 11 10 7 3 4 6 9 9 7 6 4 4 5 7
36 35 34 33 31 30 30 29 29 30 29 27 26 26 24 21 21 20 19 18 17 15 14 11 8 6 5 6 6 7 8 7 6 6 3 4 7 9
36 35 34 33 32 31 30 30 29 29 28 28 27 26 26 24 21 18 17 16 15 13 13 11 9 9 9 9 8 8 8 8 7 6 5 7 8 10
33 33 32 31 31 30 30 30 29 28 27 28 28 26 25 23 20 17 15 14 14 13 12 12 12 12 12 12 11 10 10 9 8 8 8 9 10 11
33 32 32 31 31 30 30 29 29 29 29 29 27 26 26 23 20 18 15 14 14 13 11 12 13 14 15 14 14 13 11 10 9 9 10 11 13 14
35 33 32 32 32 31 31 30 30 30 31 30 29 28 27 25 23 19 18 16 14 14 12 13 15 16 17 17 16 15 15 14 13 12 12 13 14 16
35 34 32 32 32 32 32 32 31 30 31 31 31 30 29 28 26 23 21 20 17 15 14 14 15 15 16 18 19 20 21 20 19 17 16 15 16 18
34 34 35 34 33 32 31 30 30 29 30 31 30 29 29 30 29 27 25 24 22 19 18 17 17 16 16 16 19 21 23 24 23 22 22 21 20 21
35 35 35 34 34 33 32 30 28 28 28 29 29 29 30 30 28 28 28 27 26 24 22 20 20 19 18 18 20 21 23 24 24 24 25 25 26 25
33 34 34 34 34 33 34 33 31 31 31 30 30 31 32 32 29 28 30 31 30 27 25 23 21 20 19 19 21 23 24 24 23 23 24 26 27 28
31 32 33 33 33 34 35 36 35 36 37 36 36 36 37 37 37 33 26 24 25 25 26 26 24 22 21 20 20 22 24 25 26 25 25 25 24 23
34 33 33 32 33 34 34 34 35 35 36 36 37 38 39 40 39 38 36 28 22 22 23 24 25 25 24 23 22 22 22 23 24 24 24 23 22 22
36 37 37 36 36 36 35 35 36 36 35 35 35 35 36 36 36 34 31 30 27 25 24 25 27 28 28 28 26 25 24 22 23 23 22 21 21 21
35 35 36 36 36 36 36 37 37 37 37 37 36 36 35 34 33 32 30 27 27 28 28 28 28 29 29 29 29 28 26 25 24 24 23 23 22 20
35 35 34 36 37 37 37 39 40 40 39 39 39 39 38 35 34 33 32 31 29 29 30 30 31 33 34 34 33 31 30 28 27 27 26 25 24 23
26 28 30 32 34 36 38 41 43 44 43 42 41 41 40 39 37 37 35 34 33 32 32 32 32 33 34 36 36 35 34 31 29 29 28 28 28 28
27 27 27 27 28 29 30 32 35 39 42 42 41 41 42 43 42 40 38 37 35 34 33 34 35 36 36 36 37 36 35 33 31 30 30 30 30 30
33 33 33 32 31 31 30 30 30 31 32 34 36 37 39 40 40 39 38 38 37 37 36 36 36 37 38 38 38 38 38 37 35 33 32 31 30 29
40 40 40 40 39 37 36 35 33 32 30 29 30 31 32 33 33 33 33 33 34 34 35 36 36 37 38 38 36 37 37 37 35 34 33 32 30 29
46 46 47 47 46 45 43 42 41 41 40 37 35 34 33 32 32 32 32 32 32 32 33 34 35 35 36 37 36 36 36 36 35 35 34 33 32 30
49 50 50 51 51 51 50 49 49 49 49 47 45 42 40 39 37 36 35 35 34 34 34 34 34 35 36 37 37 37 38 38 39 38 37 36 35 33
48 49 51 52 53 54 54 54 53 54 54 54 53 50 48 46 44 42 41 40 38 37 37 38 38 37 37 37 38 40 39 40 41 41 40 39 39 37
46 48 50 52 53 54 55 56 58 58 58 57 56 55 54 52 50 48 47 46 45 43 42 41 41 41 41 41 41 42 41 40 41 42 42 42 42 41
Wind_Direction
274 277 281 284 284 283 282 277 273 271 272 276 281 283 283 280 283 286 285 278 276 274 269 266 268 273 277 254 205 188 179 176 183 188 200 231 244 245
278 278 278 279 279 279 279 275 271 268 268 271 275 278 277 279 284 288 285 279 274 270 271 267 262 248 202 186 186 191 191 197 210 214 234 263 258 257
277 277 277 276 276 275 274 273 270 267 263 264 269 274 275 277 280 286 285 277 270 264 263 257 238 210 196 194 197 205 215 227 238 244 262 271 271 273
272 273 275 276 274 274 272 271 269 267 263 261 266 269 270 272 273 279 278 270 259 251 249 242 228 217 213 214 218 224 233 247 258 266 275 279 281 283
270 271 271 272 271 271 270 269 267 264 261 261 263 263 264 266 269 270 269 260 251 244 240 236 230 228 226 227 228 234 248 264 274 281 285 287 288 289
268 269 268 269 269 269 269 266 265 263 259 259 259 256 257 260 262 261 260 252 247 244 240 236 234 234 233 233 235 243 256 268 275 283 288 290 292 294
269 267 265 267 270 271 268 265 264 262 257 254 254 252 252 256 257 254 258 250 245 247 248 247 246 245 242 242 245 251 256 262 266 271 279 288 294 296
268 266 264 265 267 269 267 264 262 258 253 250 252 253 253 255 256 254 256 256 250 249 251 251 252 253 252 253 259 263 264 265 265 266 269 276 285 291
266 264 264 262 261 262 260 259 256 252 250 248 249 250 252 253 254 256 255 254 251 247 249 251 251 253 252 253 261 267 269 271 272 272 270 270 273 279
261 258 257 257 259 259 256 255 254 252 249 247 247 249 252 253 251 250 250 247 245 243 243 247 251 253 253 255 259 260 264 271 275 275 276 278 280 279
255 255 254 255 256 256 254 254 253 253 252 251 250 250 252 254 256 256 248 232 233 235 236 241 243 248 252 254 257 259 263 271 275 276 275 277 283 287
253 255 254 253 253 252 251 253 253 251 250 251 250 250 252 254 257 259 258 255 242 235 235 240 243 247 252 255 256 258 262 269 274 276 275 272 275 281
251 252 253 255 255 253 253 256 257 253 250 249 247 247 249 252 255 259 263 265 263 257 251 249 249 252 255 257 258 258 262 269 274 274 274 273 274 277
250 250 250 253 256 256 256 257 258 255 253 250 248 248 248 248 251 255 258 257 256 256 257 257 256 255 256 258 258 259 262 266 269 271 272 272 274 278
252 250 250 253 256 257 258 259 260 258 256 255 253 251 251 252 254 257 259 259 257 257 257 257 258 258 258 260 261 262 263 263 264 266 268 269 271 276
263 260 258 259 260 261 262 262 261 261 258 256 255 253 252 252 254 255 256 256 256 256 257 259 260 261 261 261 262 261 260 259 259 261 263 266 270 272
269 267 267 266 265 266 267 266 264 261 259 257 255 253 252 251 251 251 252 253 253 253 254 257 260 262 262 262 261 260 258 257 257 258 260 265 269 270
269 267 266 266 266 266 267 269 269 265 260 256 252 251 250 248 247 246 248 250 252 252 253 255 257 259 260 261 261 260 260 259 259 259 259 261 263 265
268 267 266 265 264 263 263 264 264 262 257 252 248 246 245 244 242 242 244 249 252 253 253 253 255 257 258 258 257 258 258 258 258 258 257 258 258 259
263 263 263 262 262 261 261 260 260 259 257 254 251 247 244 244 244 246 248 249 252 253 253 253 254 256 257 258 257 256 256 255 254 254 254 255 255 255
264 262 260 260 259 260 260 259 258 257 257 257 255 252 250 249 249 249 249 250 251 252 253 253 254 255 257 258 257 254 254 254 254 253 253 253 253 252
269 266 264 262 260 259 259 259 258 257 256 257 257 256 254 253 254 254 254 252 251 251 252 253 253 252 254 255 256 257 255 253 253 253 253 254 254 252
274 271 268 266 264 262 261 260 259 258 256 256 257 257 257 256 256 256 256 254 253 252 252 254 255 254 254 255 255 256 256 255 254 252 251 251 253 253
Height
5821 5821 5820 5819 5818 5818 5817 5816 5816 5815 5814 5813 5812 5811 5810 5809 5808 5807 5808 5807 5806 5804 5804 5804 5804 5805 5806 5806 5808 5810 5812 5814 5815 5818 5820 5820 5821 5821
5813 5813 5812 5812 5811 5810 5810 5809 5808 5808 5807 5807 5806 5805 5805 5804 5803 5803 5803 5802 5801 5800 5800 5800 5801 5802 5803 5805 5807 5810 5812 5813 5815 5816 5817 5818 5818 5817
5805 5805 5805 5804 5803 5802 5802 5802 5802 5801 5801 5801 5801 5800 5800 5800 5799 5799 5798 5797 5797 5797 5797 5797 5799 5800 5802 5804 5807 5809 5811 5812 5813 5814 5814 5814 5814 5814
5797 5798 5797 5797 5796 5796 5795 5795 5795 5795 5795 5795 5795 5795 5795 5795 5795 5795 5795 5795 5794 5794 5794 5796 5797 5799 5801 5803 5805 5807 5809 5810 5811 5811 5811 5811 5811 5811
5789 5790 5790 5789 5789 5789 5788 5787 5787 5788 5789 5790 5790 5790 5790 5790 5790 5791 5791 5791 5791 5791 5791 5793 5795 5797 5799 5801 5803 5805 5806 5807 5808 5808 5808 5808 5808 5808
5781 5781 5781 5781 5781 5781 5780 5780 5780 5780 5782 5783 5783 5783 5784 5784 5785 5786 5787 5787 5787 5788 5788 5790 5792 5794 5796 5798 5800 5802 5803 5803 5804 5805 5805 5805 5805 5804
5772 5772 5772 5773 5773 5773 5773 5772 5772 5773 5774 5776 5776 5777 5777 5778 5779 5780 5780 5781 5782 5783 5785 5787 5788 5790 5791 5793 5795 5797 5798 5799 5799 5800 5801 5801 5800 5799
5762 5763 5764 5765 5765 5765 5765 5765 5765 5765 5767 5768 5769 5770 5771 5772 5772 5773 5774 5775 5776 5778 5779 5781 5783 5785 5787 5788 5790 5791 5792 5793 5794 5795 5795 5796 5795 5794
5753 5754 5755 5756 5757 5757 5758 5758 5758 5758 5759 5761 5762 5763 5764 5765 5766 5766 5767 5768 5770 5772 5774 5775 5777 5779 5781 5783 5784 5785 5786 5787 5788 5789 5789 5790 5789 5789
5743 5745 5747 5747 5748 5749 5750 5750 5751 5751 5752 5753 5755 5756 5756 5757 5758 5758 5759 5761 5764 5766 5768 5770 5772 5773 5775 5777 5778 5779 5780 5781 5782 5782 5783 5783 5782 5782
5734 5735 5736 5738 5739 5740 5741 5742 5742 5743 5744 5745 5746 5747 5748 5748 5750 5751 5751 5751 5754 5757 5760 5763 5765 5767 5769 5770 5771 5772 5773 5774 5775 5775 5776 5776 5776 5775
5724 5725 5726 5727 5728 5730 5731 5732 5733 5733 5734 5735 5737 5738 5739 5739 5741 5743 5744 5745 5746 5749 5752 5755 5757 5760 5762 5764 5765 5766 5767 5768 5768 5769 5770 5770 5770 5770
5712 5714 5716 5717 5718 5719 5720 5721 5723 5723 5724 5726 5727 5729 5729 5730 5731 5733 5735 5737 5740 5742 5745 5747 5749 5751 5754 5756 5758 5760 5760 5761 5762 5763 5764 5764 5764 5764
5702 5703 5705 5706 5707 5708 5710 5711 5712 5714 5715 5716 5717 5719 5720 5721 5722 5723 5726 5729 5733 5735 5738 5740 5742 5743 5746 5748 5751 5752 5753 5754 5755 5756 5758 5758 5759 5759
5692 5692 5694 5695 5696 5698 5699 5700 5702 5703 5705 5706 5707 5709 5710 5711 5712 5714 5717 5720 5723 5725 5728 5731 5733 5735 5737 5739 5742 5744 5745 5747 5748 5749 5750 5752 5752 5753
5683 5683 5684 5684 5685 5686 5687 5689 5690 5692 5693 5695 5696 5698 5699 5701 5703 5705 5708 5710 5712 5715 5717 5720 5723 5726 5727 5729 5732 5734 5737 5739 5740 5741 5743 5744 5745 5747
5675 5675 5675 5676 5676 5676 5677 5677 5678 5679 5680 5682 5684 5686 5688 5691 5693 5696 5698 5700 5702 5705 5707 5710 5712 5714 5717 5719 5721 5724 5726 5729 5731 5733 5735 5736 5738 5739
5665 5666 5666 5666 5666 5667 5667 5668 5668 5669 5669 5670 5672 5674 5676 5678 5681 5684 5687 5689 5692 5694 5696 5699 5701 5704 5706 5708 5710 5712 5715 5718 5721 5723 5725 5727 5729 5731
5653 5654 5654 5655 5655 5656 5657 5658 5659 5660 5660 5661 5662 5664 5666 5668 5670 5673 5676 5679 5681 5683 5685 5688 5691 5693 5696 5698 5700 5702 5705 5707 5710 5712 5714 5717 5720 5723
5640 5640 5641 5641 5642 5643 5644 5646 5647 5649 5650 5652 5653 5655 5657 5659 5661 5664 5666 5668 5670 5672 5675 5677 5680 5682 5684 5687 5690 5693 5695 5697 5700 5702 5705 5708 5711 5714
5626 5626 5626 5626 5627 5628 5629 5631 5633 5635 5637 5639 5641 5643 5646 5648 5651 5653 5655 5657 5659 5661 5664 5666 5668 5671 5673 5675 5678 5681 5685 5687 5689 5692 5695 5698 5701 5704
5610 5610 5609 5610 5610 5611 5613 5615 5616 5618 5621 5623 5625 5629 5632 5635 5637 5640 5643 5646 5648 5650 5652 5654 5656 5659 5662 5664 5666 5669 5673 5676 5679 5681 5684 5688 5690 5694
5594 5593 5592 5592 5593 5594 5595 5597 5599 5601 5603 5606 5609 5612 5615 5619 5622 5625 5628 5631 5635 5638 5640 5642 5644 5646 5649 5652 5654 5656 5660 5664 5667 5670 5673 5676 5679 5682